Wind_Speed
6 6 6 6 7 7 8 8 9 10 10 11 12 13 14 14 14 15 16 17 17 17 18 18 19 18 18 17 17 15 14 13 11 10 9 8 8 7 7 6 5 4 3
6 6 7 8 8 8 9 10 10 11 12 13 14 14 15 15 16 16 16 18 18 19 19 20 20 19 19 18 17 16 15 14 12 11 10 9 8 8 7 6 5 4 3
6 7 8 8 9 9 10 11 12 13 13 14 15 16 16 16 17 17 18 19 19 20 20 21 21 20 20 19 18 17 16 15 13 12 11 10 9 8 7 6 4 3 3
7 7 8 9 9 10 11 12 13 14 15 16 16 16 17 17 18 19 19 20 20 21 21 21 21 21 21 21 20 19 18 16 14 13 12 10 9 8 7 6 4 3 3
6 7 8 9 10 11 12 12 13 14 15 16 17 17 18 19 20 20 20 20 21 21 21 22 22 22 22 22 21 21 19 17 16 14 13 11 10 8 7 6 4 3 3
7 7 8 9 10 11 13 13 14 15 15 16 17 18 19 19 20 21 21 21 22 22 22 23 22 22 22 22 22 21 20 19 17 15 13 11 10 8 7 6 5 4 3
7 8 9 10 10 11 12 13 14 14 15 16 16 18 18 19 20 21 21 22 22 23 23 23 23 23 23 22 22 21 20 19 17 16 14 13 11 9 8 7 5 4 4
7 8 8 9 10 11 11 12 12 13 14 15 16 16 17 18 19 20 21 22 22 22 24 24 24 24 24 23 23 22 20 20 18 17 16 14 12 11 9 7 6 5 4
6 7 8 8 9 10 10 11 12 12 13 14 15 16 16 16 18 19 20 21 22 22 22 23 24 24 24 24 24 24 22 21 20 18 16 15 14 12 11 9 7 6 5
6 6 6 7 8 9 10 11 12 13 13 13 14 15 16 16 17 18 19 20 20 21 22 23 24 25 25 25 25 24 24 22 21 20 18 17 15 14 12 10 9 7 7
5 6 6 7 8 9 11 12 13 13 13 13 14 14 15 16 16 17 18 19 19 20 20 22 23 24 25 25 25 24 23 24 23 21 20 18 17 16 14 12 11 9 8
4 4 5 6 8 9 11 12 13 14 15 15 14 14 15 15 16 16 17 17 19 19 20 20 21 22 24 24 25 24 24 24 23 22 21 19 18 17 15 14 13 11 10
3 4 5 6 8 10 11 12 13 14 15 15 15 15 15 16 16 16 17 17 18 18 19 20 21 21 22 23 24 24 24 24 25 24 23 21 20 18 17 16 15 13 12
2 4 5 7 9 11 12 13 14 14 15 15 16 16 16 17 17 16 17 17 17 18 19 20 20 21 22 23 24 25 25 25 25 25 24 23 22 21 19 18 16 15 14
3 5 6 8 10 12 13 14 15 15 15 15 16 16 17 17 17 17 17 16 17 18 18 19 19 20 21 23 23 24 25 25 26 26 25 24 24 23 21 20 18 17 16
4 5 7 9 11 12 13 14 15 16 16 17 17 17 18 18 17 17 17 16 16 17 17 18 19 19 20 22 23 24 25 25 25 26 26 25 24 24 22 21 20 19 18
4 6 8 10 12 13 14 15 16 17 18 18 18 18 18 18 17 17 16 16 16 16 17 17 17 18 19 20 22 24 25 26 26 26 27 27 25 24 23 23 22 21 20
4 6 8 10 12 13 14 15 17 18 18 18 19 18 18 18 17 17 16 16 15 15 15 16 16 17 18 19 21 23 24 26 26 26 27 27 27 25 24 24 23 22 22
5 6 8 10 12 13 15 16 17 18 18 19 19 19 18 18 17 17 16 15 14 14 14 14 15 16 17 18 19 22 23 25 25 26 27 28 28 26 25 24 24 24 23
5 7 8 10 12 13 15 16 17 18 19 19 19 19 19 18 17 17 16 15 13 12 12 12 13 13 15 17 18 19 22 24 25 25 26 26 27 27 26 25 25 25 25
5 7 8 10 12 13 15 16 17 18 19 19 19 19 19 18 18 17 16 15 13 11 10 10 11 12 13 15 17 18 20 22 24 25 25 26 27 27 27 26 25 25 25
5 6 8 10 12 13 14 16 17 18 18 19 19 19 19 18 17 17 16 14 12 10 9 9 9 10 11 13 15 17 18 20 23 24 24 24 25 26 27 27 26 26 25
5 6 8 9 11 13 14 16 17 18 18 19 19 19 19 18 17 17 16 14 12 10 9 8 8 8 9 11 13 15 17 18 20 23 23 24 24 26 26 25 27 27 26
5 6 7 9 11 12 14 15 16 17 18 19 19 19 19 18 17 16 16 14 13 11 9 8 7 7 8 9 11 13 16 17 19 21 22 23 23 25 25 26 26 27 27
6 6 7 9 10 12 13 15 16 17 18 19 19 19 19 18 17 16 15 14 13 11 9 7 6 6 7 8 10 11 14 16 18 20 21 21 21 23 25 26 26 27 27
6 7 8 9 10 11 13 15 16 16 17 18 19 19 19 19 17 16 15 14 13 11 9 7 5 5 6 7 8 10 12 14 16 18 19 20 21 22 22 24 25 26 27
Wind_Direction
294 297 301 305 305 301 294 286 280 278 275 273 270 269 270 268 264 259 256 255 253 254 253 254 256 258 261 263 264 267 268 272 278 283 283 286 287 288 295 301 297 297 296
293 296 300 303 301 299 294 288 281 278 276 275 272 269 270 270 266 262 259 258 257 256 254 255 257 258 260 261 263 264 266 268 272 277 279 281 282 284 287 293 300 302 290
292 297 302 304 301 298 294 291 285 279 277 277 276 271 269 269 266 263 261 260 259 258 256 256 257 257 258 259 261 262 263 265 267 271 274 275 278 281 283 288 295 301 284
293 299 302 304 304 303 299 295 291 287 281 278 276 272 268 267 266 264 262 262 260 259 258 256 256 257 257 257 259 261 261 263 264 266 269 271 273 277 278 279 282 285 271
297 300 304 305 306 305 303 300 296 292 287 283 278 273 270 267 266 265 262 262 259 258 257 256 256 256 256 255 256 259 259 260 261 261 264 265 268 270 270 272 268 269 264
302 304 306 305 305 304 303 302 299 295 290 286 282 277 274 270 267 266 265 264 263 260 258 256 255 256 254 254 254 256 255 254 256 256 258 259 262 260 262 264 260 258 252
306 309 310 309 308 308 309 307 303 298 294 289 286 281 278 274 270 267 266 264 263 262 260 258 255 255 253 253 252 253 252 250 249 250 252 253 254 252 254 255 253 250 238
309 313 312 313 315 317 317 316 311 306 301 295 290 287 284 280 276 273 269 264 264 262 259 256 255 256 254 252 251 250 247 245 246 245 247 248 248 247 248 248 244 237 226
312 317 319 323 324 325 327 325 321 316 310 304 299 293 289 286 281 277 274 268 264 262 260 256 253 254 252 251 250 248 245 243 243 243 244 243 243 243 243 242 236 227 218
319 327 331 334 335 336 335 333 329 325 319 313 306 301 296 290 286 282 277 271 267 264 260 258 254 254 252 250 248 246 243 241 241 240 241 241 239 238 238 238 232 220 212
331 336 340 346 346 343 340 337 333 330 326 320 314 308 302 297 291 287 281 274 268 264 262 259 256 253 252 250 247 243 241 239 237 237 238 237 234 235 234 233 229 219 212
335 345 353 350 346 343 339 337 334 331 328 326 323 316 310 304 298 292 286 279 271 265 261 259 258 253 250 248 246 243 240 238 236 235 234 234 232 231 231 230 226 220 213
348 358 356 348 345 343 341 339 336 334 331 329 326 322 316 310 304 297 290 283 276 269 262 259 257 254 249 246 244 243 239 236 234 233 233 233 232 230 229 227 225 221 216
355 356 355 351 346 345 343 341 339 337 335 331 326 323 320 315 309 302 294 285 278 271 265 260 257 255 251 247 243 241 238 235 232 231 231 231 230 228 227 225 225 222 217
356 355 356 353 348 346 344 343 342 340 339 334 329 326 322 318 312 305 299 290 281 273 267 261 256 254 250 246 242 240 237 234 231 230 229 228 229 228 225 223 223 221 217
355 355 354 353 350 347 345 345 345 343 339 335 332 328 325 322 317 310 303 294 284 276 269 263 258 254 250 246 242 239 235 232 228 228 227 227 227 227 225 223 222 219 216
359 355 352 353 352 350 348 347 345 344 341 338 335 332 329 326 323 317 309 300 290 281 272 264 259 254 249 245 241 237 234 230 228 227 226 226 225 224 223 221 221 218 216
354 351 351 354 353 352 351 349 347 345 343 341 338 336 333 330 327 323 316 307 296 286 275 266 260 254 248 244 239 235 232 229 227 226 226 225 224 222 222 221 220 217 216
348 350 351 353 353 353 352 349 347 346 345 343 341 339 336 334 332 328 323 314 304 290 278 269 262 257 247 240 236 233 230 226 225 224 224 224 222 222 221 220 219 220 217
350 352 353 352 352 354 352 350 348 347 347 345 343 341 339 336 334 332 328 320 311 298 284 273 264 258 247 238 234 230 226 224 221 221 222 224 222 221 220 219 221 221 219
345 350 350 347 348 350 350 351 350 349 349 347 346 344 342 340 337 335 332 326 318 305 291 280 267 257 247 239 234 229 225 222 219 218 221 222 222 221 219 218 220 219 219
338 343 342 342 344 346 348 350 351 351 350 349 349 348 346 344 343 341 338 334 325 313 300 286 274 259 249 240 234 229 225 221 218 217 220 221 220 220 219 220 219 218 218
331 334 335 336 340 345 347 350 351 352 353 352 351 351 349 348 346 345 343 340 337 325 309 292 278 263 250 239 233 227 224 220 219 217 219 220 219 218 217 218 219 219 219
325 325 328 334 338 342 345 348 351 353 354 355 354 353 353 352 351 349 348 344 340 333 321 305 284 264 247 237 231 226 221 221 219 217 218 218 217 217 216 217 218 219 219
320 321 326 332 337 342 346 350 351 353 355 356 357 358 357 355 354 352 351 348 343 337 328 315 290 266 247 237 232 226 221 219 215 216 217 217 216 217 218 217 218 218 219
312 318 323 328 335 341 346 349 351 353 356 358 359 0 0 359 356 354 353 351 349 345 339 328 300 269 247 236 230 226 224 219 214 215 217 218 218 218 217 217 218 218 218
Height
5871 5870 5870 5869 5869 5869 5868 5868 5868 5868 5868 5868 5867 5867 5867 5867 5866 5866 5867 5867 5867 5867 5868 5868 5868 5869 5869 5869 5869 5869 5869 5869 5869 5869 5868 5868 5867 5867 5866 5865 5865 5864 5863
5869 5869 5869 5868 5868 5867 5867 5867 5866 5866 5866 5866 5865 5865 5864 5864 5864 5864 5864 5864 5864 5865 5865 5865 5866 5866 5866 5866 5867 5867 5867 5867 5867 5867 5867 5867 5866 5866 5865 5865 5864 5863 5863
5868 5867 5867 5866 5866 5865 5865 5865 5864 5864 5864 5863 5863 5862 5862 5861 5861 5861 5861 5861 5861 5862 5862 5862 5863 5863 5863 5864 5864 5865 5865 5865 5865 5865 5866 5866 5865 5865 5865 5864 5864 5863 5863
5867 5866 5865 5865 5864 5863 5863 5862 5862 5861 5861 5860 5859 5859 5858 5858 5858 5857 5857 5857 5857 5858 5858 5859 5859 5860 5860 5861 5861 5862 5862 5863 5863 5864 5864 5864 5864 5864 5864 5864 5863 5863 5863
5865 5864 5864 5863 5862 5861 5861 5860 5859 5858 5858 5857 5856 5855 5855 5854 5854 5854 5854 5853 5853 5854 5854 5855 5855 5856 5856 5857 5858 5859 5860 5860 5861 5862 5862 5863 5863 5863 5863 5863 5863 5862 5862
5864 5863 5862 5861 5860 5859 5858 5857 5856 5855 5854 5853 5852 5852 5851 5851 5850 5850 5850 5849 5849 5850 5850 5851 5851 5852 5852 5853 5854 5855 5856 5858 5859 5859 5860 5861 5862 5862 5862 5862 5862 5862 5862
5862 5861 5860 5859 5858 5857 5856 5855 5853 5852 5851 5850 5848 5848 5847 5846 5846 5845 5845 5845 5845 5845 5846 5846 5847 5847 5848 5849 5850 5852 5853 5854 5856 5857 5858 5859 5860 5861 5861 5861 5862 5862 5862
5861 5860 5859 5857 5856 5855 5854 5852 5851 5849 5848 5846 5845 5844 5843 5842 5841 5841 5841 5840 5840 5841 5841 5842 5842 5843 5844 5845 5846 5848 5849 5851 5852 5854 5856 5857 5858 5859 5860 5860 5861 5861 5862
5859 5858 5857 5856 5854 5853 5852 5850 5849 5847 5845 5843 5842 5840 5839 5838 5837 5837 5836 5836 5836 5836 5836 5837 5838 5838 5839 5840 5842 5844 5845 5847 5849 5851 5853 5854 5856 5857 5858 5859 5860 5861 5861
5857 5856 5855 5854 5853 5851 5850 5848 5846 5845 5843 5841 5839 5837 5836 5835 5834 5833 5832 5831 5831 5831 5831 5832 5832 5833 5834 5836 5837 5839 5841 5844 5845 5848 5850 5852 5853 5855 5856 5858 5859 5860 5861
5855 5855 5854 5853 5851 5850 5848 5846 5844 5842 5840 5838 5836 5834 5833 5831 5830 5828 5827 5827 5826 5826 5826 5827 5827 5828 5829 5831 5832 5834 5837 5839 5842 5844 5846 5848 5850 5852 5854 5856 5857 5859 5860
5855 5854 5853 5852 5850 5849 5847 5845 5842 5840 5837 5835 5833 5831 5829 5827 5826 5824 5823 5822 5821 5821 5821 5822 5822 5823 5824 5825 5827 5829 5832 5835 5837 5840 5842 5845 5847 5849 5851 5853 5855 5857 5859
5854 5853 5852 5851 5849 5847 5845 5843 5840 5838 5835 5832 5830 5828 5826 5824 5822 5820 5819 5817 5817 5816 5816 5817 5817 5818 5819 5820 5822 5824 5827 5830 5833 5836 5838 5841 5844 5846 5848 5851 5853 5855 5857
5853 5852 5850 5849 5847 5845 5843 5841 5838 5835 5832 5830 5827 5825 5823 5820 5818 5816 5814 5813 5812 5811 5811 5811 5812 5813 5814 5815 5817 5819 5822 5825 5828 5831 5834 5837 5840 5842 5845 5848 5850 5853 5855
5851 5850 5849 5847 5846 5843 5841 5839 5836 5833 5830 5827 5825 5822 5819 5816 5814 5811 5810 5808 5807 5806 5806 5806 5807 5808 5809 5810 5812 5814 5817 5820 5823 5826 5829 5833 5836 5838 5841 5844 5847 5850 5852
5850 5849 5848 5846 5844 5842 5839 5836 5834 5831 5828 5825 5821 5819 5816 5813 5810 5807 5805 5803 5802 5801 5801 5801 5802 5802 5803 5805 5807 5809 5811 5815 5818 5822 5825 5828 5832 5835 5838 5841 5844 5847 5850
5849 5848 5846 5845 5842 5840 5837 5834 5831 5828 5825 5822 5819 5815 5812 5809 5806 5803 5801 5799 5797 5796 5796 5796 5796 5797 5798 5799 5801 5803 5806 5810 5813 5817 5820 5824 5827 5831 5834 5837 5840 5844 5847
5848 5847 5845 5843 5841 5838 5836 5833 5829 5826 5823 5819 5816 5812 5809 5806 5802 5799 5796 5794 5792 5791 5791 5791 5791 5792 5793 5794 5796 5798 5801 5804 5808 5812 5815 5819 5823 5826 5830 5833 5836 5840 5843
5846 5845 5843 5842 5840 5837 5834 5831 5828 5824 5821 5817 5813 5810 5806 5803 5799 5796 5793 5790 5788 5787 5786 5786 5786 5787 5788 5789 5790 5793 5796 5799 5803 5806 5810 5814 5818 5822 5826 5829 5833 5836 5840
5845 5844 5842 5840 5838 5836 5833 5830 5826 5823 5819 5815 5811 5807 5803 5800 5796 5793 5790 5787 5785 5783 5782 5782 5782 5782 5783 5784 5786 5788 5791 5794 5798 5802 5805 5809 5813 5817 5821 5825 5829 5832 5836
5844 5842 5841 5840 5837 5835 5832 5829 5825 5821 5817 5813 5809 5805 5801 5797 5794 5790 5787 5784 5782 5780 5779 5778 5778 5779 5779 5780 5782 5784 5787 5790 5793 5797 5801 5804 5808 5812 5816 5820 5824 5828 5832
5842 5841 5840 5839 5836 5834 5831 5828 5824 5820 5816 5812 5808 5803 5799 5795 5791 5788 5785 5782 5779 5777 5776 5775 5775 5775 5776 5777 5778 5780 5783 5786 5789 5793 5796 5800 5803 5807 5811 5816 5820 5824 5828
5841 5840 5839 5837 5835 5833 5830 5826 5823 5819 5815 5811 5806 5802 5798 5794 5790 5786 5783 5780 5777 5775 5774 5773 5772 5772 5772 5773 5775 5777 5780 5782 5785 5789 5792 5796 5799 5803 5807 5811 5815 5820 5824
5840 5839 5838 5836 5834 5832 5829 5825 5822 5818 5814 5810 5805 5801 5797 5793 5789 5785 5782 5778 5776 5774 5772 5770 5770 5769 5770 5771 5772 5774 5776 5779 5782 5785 5789 5792 5795 5799 5802 5807 5811 5815 5818
5839 5838 5837 5835 5833 5831 5827 5824 5821 5817 5813 5809 5804 5800 5796 5792 5788 5784 5781 5777 5775 5772 5770 5768 5768 5767 5768 5768 5769 5771 5773 5776 5778 5781 5785 5788 5792 5795 5798 5802 5806 5810 5814
5837 5836 5835 5833 5832 5829 5826 5823 5820 5816 5812 5808 5804 5800 5796 5791 5787 5783 5780 5777 5773 5771 5768 5767 5766 5766 5766 5766 5768 5769 5771 5773 5775 5778 5781 5785 5788 5791 5794 5798 5802 5805 5809